This demonstration page uses our WeatherBlox Daily Observations layout. Learn more.

Hourly Observations for October 17, 2019

Temp ( °F °C ) Dew Point ( °F °C ) Humidity (%) Winds ( mph kmh ) Pressure ( in mb ) Visibility ( mi km ) Precip ( " mm )
12:54 am 00:54 Clear 43 6.1 36 2.2 76 76 S 3 6 30 1016 10 16.09344 0 0
1:54 am 01:54 Clear 41 5 35 1.7 79 79 S 5 7 30 1016 10 16.09344 0 0
2:54 am 02:54 Clear 42 5.6 35 1.7 76 76 Calm 29.97 1015 10 16.09344 0 0
3:54 am 03:54 Clear 41 5 34 1.1 76 76 SSE 8 13 29.97 1015 10 16.09344 0 0
4:54 am 04:54 Clear 39 3.9 33 0.6 79 79 S 7 11 29.94 1014 10 16.09344 0 0
5:54 am 05:54 Clear 39 3.9 34 1.1 82 82 SSE 8 13 29.94 1014 10 16.09344 0 0
6:54 am 06:54 Clear 39 3.9 34 1.1 82 82 SSE 6 9 29.94 1014 10 16.09344 0 0
7:54 am 07:54 Sunny 39 3.9 34 1.1 82 82 S 6 9 29.94 1014 10 16.09344 0 0
8:54 am 08:54 Sunny 44 6.7 38 3.3 79 79 S 6 9 29.94 1014 10 16.09344 0 0
9:54 am 09:54 Sunny 50 10 40 4.4 68 68 S 8 13 29.94 1014 10 16.09344 0 0
10:54 am 10:54 Sunny 56 13.3 40 4.4 55 55 S 9 15 29.91 1013 10 16.09344 0 0
11:54 am 11:54 Sunny 60 15.6 41 5 50 50 S 10 17 29.88 1012 10 16.09344 0 0
12:54 pm 12:54 Sunny 63 17.2 41 5 45 45 SE 9 15 29.85 1011 10 16.09344 0 0
1:54 pm 13:54 Sunny 67 19.4 42 5.6 41 41 SE 13 20 29.83 1010 10 16.09344 0 0
2:54 pm 14:54 Sunny 70 21.1 42 5.6 37 37 SSE 15 24 29.8 1009 10 16.09344 0 0
3:54 pm 15:54 Sunny 71 21.7 43 6.1 36 36 SSE 13 20 29.77 1008 10 16.09344 0 0
4:54 pm 16:54 Sunny 70 21.1 44 6.7 39 39 SE 13 20 29.77 1008 10 16.09344 0 0
5:54 pm 17:54 Sunny 68 20 45 7.2 44 44 SE 10 17 29.77 1008 10 16.09344 0 0
6:54 pm 18:54 Clear 65 18.3 44 6.7 47 47 SSE 12 19 29.74 1007 10 16.09344 0 0
7:54 pm 19:54 Clear 62 16.7 44 6.7 52 52 SE 9 15 29.77 1008 10 16.09344 0 0
8:54 pm 20:54 Clear 61 16.1 45 7.2 56 56 SSE 12 19 29.74 1007 10 16.09344 0 0
9:54 pm 21:54 Clear 59 15 45 7.2 60 60 SSE 15 24 29.74 1007 10 16.09344 0 0
10:54 pm 22:54 Clear 56 13.3 45 7.2 67 67 SSE 10 17 29.74 1007 10 16.09344 0 0
11:54 pm 23:54 Clear 55 12.8 45 7.2 69 69 SSE 9 15 29.74 1007 10 16.09344 0 0

Powered by AerisWeather